This demonstration page uses our WeatherBlox Daily Observations layout. Learn more.

Left ArrowRight Arrow

Hourly Observations for March 25, 2022

Temp ( °F °C ) Dew Point ( °F °C ) Humidity (%) Winds ( mph kmh ) Pressure ( in mb ) Visibility ( mi km ) Precip ( " mm )
12:53 am 00:53 Clear 25 -3.9 15 -9.4 66 66 NW 6 9 30.35 1028 10 16 0.00 0.00
1:53 am 01:53 Clear 19 -7.2 13 -10.6 77 77 SSW 7 11 30.36 1028 N/A 0.00 0.00
2:53 am 02:53 Clear 19 -7.2 13 -10.6 77 77 Calm 30.36 1028 N/A 0.00 0.00
3:53 am 03:53 Clear 18 -7.8 12 -11.1 77 77 Calm 30.35 1028 N/A 0.00 0.00
4:53 am 04:53 Clear 18 -7.8 12 -11.1 77 77 Calm 30.34 1027 N/A 0.00 0.00
5:53 am 05:53 Clear 17 -8.3 12 -11.1 80 80 Calm 30.33 1027 N/A 0.00 0.00
6:53 am 06:53 Clear 17 -8.3 11 -11.7 77 77 Calm 30.34 1027 N/A 0.00 0.00
7:53 am 07:53 Sunny 18 -7.8 14 -10 84 84 E 3 6 30.33 1027 N/A 0.00 0.00
8:53 am 08:53 Sunny 26 -3.3 19 -7.2 75 75 ENE 6 9 30.30 1026 N/A 0.00 0.00
9:53 am 09:53 Sunny 33 0.6 19 -7.2 56 56 ENE 8 13 30.28 1025 10 16 0.00 0.00
10:53 am 10:53 Mostly Sunny 41 5 20 -6.7 43 43 ENE 12 19 30.25 1024 10 16 0.00 0.00
11:53 am 11:53 Mostly Sunny 46 7.8 18 -7.8 32 32 ENE 14 22 30.23 1024 10 16 0.00 0.00
12:53 pm 12:53 Sunny 49 9.4 14 -10 25 25 ENE 15 24 30.19 1022 10 16 0.00 0.00
1:53 pm 13:53 Sunny 51 10.6 11 -11.7 20 20 E 15 24 30.17 1022 10 16 0.00 0.00
2:53 pm 14:53 Sunny 52 11.1 12 -11.1 20 20 E 16 26 30.13 1020 10 16 0.00 0.00
3:53 pm 15:53 Partly Cloudy 53 11.7 12 -11.1 19 19 ESE 15 24 30.11 1020 10 16 0.00 0.00
4:53 pm 16:53 Sunny 53 11.7 12 -11.1 19 19 E 16 26 30.10 1019 10 16 0.00 0.00
5:53 pm 17:53 Mostly Cloudy 50 10 14 -10 24 24 E 17 28 30.09 1019 10 16 0.00 0.00
6:53 pm 18:53 Cloudy 49 9.4 17 -8.3 28 28 E 14 22 30.10 1019 10 16 0.00 0.00
7:53 pm 19:53 Mostly Cloudy 46 7.8 14 -10 27 27 E 20 31 30.09 1019 10 16 0.00 0.00
8:53 pm 20:53 Mostly Clear 44 6.7 11 -11.7 26 26 E 21 33 30.09 1019 10 16 0.00 0.00
9:53 pm 21:53 Clear 42 5.6 11 -11.7 28 28 E 20 31 30.07 1018 10 16 0.00 0.00
10:53 pm 22:53 Mostly Cloudy 41 5 12 -11.1 30 30 E 20 31 30.06 1018 10 16 0.00 0.00
11:53 pm 23:53 Cloudy 41 5 13 -10.6 32 32 E 20 31 30.05 1018 10 16 0.00 0.00

Powered by AerisWeather